This demonstration page uses our WeatherBlox Daily Observations layout. Learn more.

Left ArrowRight Arrow

53.62937, 11.41316

Hourly Observations for September 1, 2015

Temp ( °F °C ) Dew Point ( °F °C ) Humidity (%) Winds ( mph kmh ) Pressure ( in mb ) Visibility ( mi km ) Precip ( " mm )
6:20 am 06:20 Mostly Clear 68 20 64 18 88 88 WSW 10 17 29.71 1006 7 11 N/A
6:50 am 06:50 Mostly Sunny 68 20 64 18 88 88 WSW 8 13 29.71 1006 7 11 N/A
7:20 am 07:20 Partly Cloudy 66 19 64 18 94 94 WSW 6 9 29.74 1007 30 48 N/A
7:50 am 07:50 Mostly Sunny 68 20 64 18 88 88 SW 8 13 29.71 1006 30 48 N/A
8:20 am 08:20 Mostly Sunny 68 20 64 18 88 88 WSW 10 17 29.71 1006 7 11 N/A
8:50 am 08:50 Partly Cloudy 68 20 64 18 88 88 WSW 14 22 29.71 1006 30 48 N/A
9:20 am 09:20 Mostly Sunny 72 22 64 18 78 78 WSW 14 22 29.71 1006 30 48 N/A
9:50 am 09:50 Mostly Sunny 72 22 64 18 78 78 SW 16 26 29.71 1006 30 48 N/A
10:20 am 10:20 Mostly Sunny 72 22 63 17 73 73 SW 17 28 29.71 1006 30 48 N/A
10:50 am 10:50 Mostly Cloudy 72 22 63 17 73 73 SW 18 30 29.74 1007 30 48 N/A
11:20 am 11:20 Mostly Cloudy 72 22 61 16 69 69 SW 16 26 29.74 1007 30 48 N/A
11:50 am 11:50 Mostly Cloudy 72 22 59 15 65 65 SW 17 28 29.74 1007 30 48 N/A
12:20 pm 12:20 Mostly Cloudy 72 22 61 16 69 69 W 13 20 29.71 1006 30 48 N/A
12:50 pm 12:50 Mostly Cloudy 72 22 61 16 69 69 WSW 15 24 29.71 1006 30 48 N/A
1:20 pm 13:20 Mostly Cloudy 72 22 61 16 69 69 WSW 14 22 29.74 1007 30 48 N/A
1:50 pm 13:50 Mostly Cloudy 70 21 61 16 73 73 W 15 24 29.74 1007 30 48 N/A
2:20 pm 14:20 Mostly Cloudy 70 21 61 16 73 73 W 14 22 29.74 1007 30 48 N/A
2:50 pm 14:50 Mostly Cloudy 68 20 59 15 73 73 W 15 24 29.74 1007 30 48 N/A
3:20 pm 15:20 Mostly Cloudy 68 20 59 15 73 73 W 17 28 29.77 1008 30 48 N/A
3:50 pm 15:50 Mostly Cloudy with Light Rain 64 18 57 14 78 78 WNW 13 20 29.77 1008 30 48 N/A
4:20 pm 16:20 Mostly Cloudy 64 18 57 14 78 78 W 12 19 29.77 1008 30 48 N/A
4:50 pm 16:50 Mostly Cloudy with Light Rain 64 18 57 14 78 78 W 13 20 29.80 1009 30 48 N/A
5:20 pm 17:20 Mostly Cloudy 63 17 57 14 83 83 W 13 20 29.80 1009 30 48 N/A
5:50 pm 17:50 Mostly Cloudy 63 17 57 14 83 83 W 10 17 29.80 1009 30 48 N/A
6:20 pm 18:20 Mostly Cloudy 63 17 57 14 83 83 W 8 13 29.80 1009 30 48 N/A
6:50 pm 18:50 Cloudy 63 17 57 14 83 83 W 13 20 29.80 1009 30 48 N/A

Powered by AerisWeather